Regional Weather Roundup
Issued by NWS

Home | Current Version | Previous Version | Text Only | Print | Product List | Glossary Off
Versions: 1 2 3 4 5 6 7 8 9 10 11 12 13 14 15 16 17 18 19 20 21 22 23 24 25 26 27 28 29 30 31 32 33 34 35 36 37 38 39 40 41 42 43 44 45 46 47 48 49 50

397
ASUS43 KIND 261059
RWRIN

WEATHER ROUNDUP FOR INDIANA
NATIONAL WEATHER SERVICE INDIANAPOLIS IN
700 AM EDT WED APR 26 2017

NOTE: "FAIR" INDICATES FEW OR NO CLOUDS BELOW 12,000 FEET WITH NO
SIGNIFICANT WEATHER AND/OR OBSTRUCTIONS TO VISIBILITY.

* - STATION DOES NOT REPORT WEATHER SUCH AS PRECIPITATION OR FOG.

+ - STATION NOT QUALITY CONTROLLED BY THE NATIONAL WEATHER SERVICE.
    USE DATA WITH CAUTION...ESPECIALLY DEWPOINT AND RELATIVE
    HUMIDITY OBSERVATIONS.

INZ001>003-010>013-019-020-261200-
NORTHWEST INDIANA

CITY           SKY/WX    TMP DP  RH WIND       PRES   REMARKS
GARY /AIRPORT/ CLOUDY    66  54  63 SE9       29.50F
KNOX *+        CLOUDY    63  36  36 S13       29.54F
MONTICELLO +   CLOUDY    63  55  74 S8        29.55F

$$

LMZ046-743>745-261200-
SOUTHERN LAKE MICHIGAN

STATION/POSITION TIME  TEMP    WIND        PRES    WAVE
                       AIR SEA DIR/SP/G            HT
                 (UTC) (F)     (DEG/KT/KT) (MB)    (FT)
BURNS HARBOR     1040   66     160/ 11/ 16  999.7F
MICHIGAN CITY    1030   64     150/ 14/ 16   N/A

$$

INZ004-005-014>016-021>024-261200-
NORTH CENTRAL INDIANA

CITY           SKY/WX    TMP DP  RH WIND       PRES   REMARKS
ELKHART        MOCLDY    63  55  77 S6        29.58  HAZE
GOSHEN         LGT RAIN  63  54  72 SE9       29.58F
SOUTH BEND     CLOUDY    62  55  77 S12       29.56F

$$

INZ006>009-017-018-025>027-261200-
NORTHEAST INDIANA

CITY           SKY/WX    TMP DP  RH WIND       PRES   REMARKS
ANGOLA *+      CLEAR     57  55  94 SE6       29.63S
FORT WAYNE     CLOUDY    59  54  83 SE8       29.64S
KENDALLVILLE + PTCLDY    58  55  88 S9        29.63F

$$

INZ028-029-035-036-043>045-051>053-261200-
WEST CENTRAL INDIANA

CITY           SKY/WX    TMP DP  RH WIND       PRES   REMARKS
CRAWFORDSVL +  CLOUDY    59  55  88 SE12      29.58F
GREENCASTLE +  MOCLDY    61  54  77 S12       29.60F
LAFAYETTE      CLOUDY    63  56  78 S8        29.55F
TERRE HAUTE    CLOUDY    64  55  72 S14       29.58S

$$

INZ030>032-037>040-046>048-054>057-064-065-261200-
CENTRAL INDIANA

CITY           SKY/WX    TMP DP  RH WIND       PRES   REMARKS
CP ATTERBURY + PTCLDY    57  54  88 SE5       29.66S
COLUMBUS       CLEAR     59  54  82 S7        29.66
INDIANAPOLIS   CLOUDY    60  55  83 SE12      29.61F
-EAGLE CREEK   CLOUDY    62  55  77 SE7       29.61F
KOKOMO +       CLOUDY    61  55  81 S14       29.61F
SHELBYVILLE    PTCLDY    63  54  72 S13       29.64S

$$

INZ033-034-041-042-049-050-058-059-261200-
EAST CENTRAL INDIANA

CITY           SKY/WX    TMP DP  RH WIND       PRES   REMARKS
MUNCIE         PTCLDY    63  54  72 S9        29.64S
RICHMOND +     PTCLDY    54  52  94 SE10      29.69F

$$

INZ060-061-067>069-081>083-085>088-261200-
SOUTHWEST INDIANA

CITY           SKY/WX    TMP DP  RH WIND       PRES   REMARKS
EVANSVILLE     MOCLDY    63  56  78 S8        29.63R
HUNTINGBURG *+ CLOUDY    62  56  80 S8        29.64F

$$

INZ062-063-066-070>080-084-089>092-261200-
SOUTH CENTRAL AND SOUTHEAST INDIANA

CITY           SKY/WX    TMP DP  RH WIND       PRES   REMARKS
BLOOMINGTON    CLOUDY    60  54  80 S10       29.62F
MADISON *+     PTCLDY    59  54  82 S6        29.71S
SEYMOUR +      PTCLDY    59  55  88 SE8       29.66S

$$





USA.gov is the U.S. government's official web portal to all federal, state and local government web resources and services.